Regional Weather Roundup
Issued by NWS

Home | Current Version | Previous Version | Graphics & Text | Print | Product List | Glossary On
Versions: 1 2 3 4 5 6 7 8 9 10 11 12 13 14 15 16 17 18 19 20 21 22 23 24 25 26 27 28 29 30 31 32 33 34 35 36 37 38 39 40 41 42 43 44 45 46 47 48 49 50
262
ASUS44 KJAN 312010
RWRMS

MISSISSIPPI HOURLY WEATHER ROUNDUP
NATIONAL WEATHER SERVICE JACKSON MS
300 PM CDT THU JUL 31 2014

NOTE: "FAIR: INDICATES FEW OR NO CLOUDS BELOW 12,000 FEET WITH NO
SIGNIFICANT WEATHER AND/OR OBSTRUCTIONS TO VISIBILITY.

MSZ001>002-007>008-010>013-018>021-025>028-034>036-312100-
NORTHWEST MISSISSIPPI

CITY           SKY/WX    TMP DP  RH WIND       PRES   REMARKS
CLARKSDALE     CLOUDY    77  68  73 NE9       30.09S
CLEVELAND      FAIR      80  66  63 CALM      30.06S
GREENWOOD      MOSUNNY   83  62  49 NE6       30.05F
GREENVILLE     CLOUDY    80  64  58 NW3       30.06S
GRENADA        CLOUDY    81  59  47 NE6       30.07S
OLIVE BRANCH   PTSUNNY   75  70  83 N8        30.09F
OXFORD         FAIR      81  59  47 N3        30.10S
TUNICA         MOCLDY    75  64  69 NW9       30.10S
$$

MSZ003>006-009-014>017-022>024-029>033-037>039-312100-
NORTHEAST MISSISSIPPI

CITY           SKY/WX    TMP DP  RH WIND       PRES   REMARKS
BELMONT        FAIR      80  63  55 NE5       30.08F
COLUMBUS AFB   CLOUDY    81  60  47 NE5       30.07F
CORINTH        CLOUDY    81  59  47 NW3       30.08S
GOLDN TRIANGLE MOSUNNY   82  61  47 NE5       30.08S
STARKVILLE     FAIR      81  59  47 NE5       30.06F
TUPELO         PTSUNNY   83  60  45 CALM      30.07F
$$

MSZ040-058-312100-
CENTRAL MISSISSIPPI

CITY           SKY/WX    TMP DP  RH WIND       PRES   REMARKS
JACKSON INTL   CLOUDY    84  59  42 CALM      30.04F
JACKSON HAWKNS CLOUDY    83  60  45 SW5       30.05S
MERIDIAN KEY   CLOUDY    85  61  44 NW9       30.03F
MERIDIAN NAS   CLOUDY    83  60  45 NE6       30.05S
RAYMOND        FAIR      81  75  83 CALM      30.05F
VICKSBURG      CLOUDY    80  64  58 VRB3      30.05F
$$

MSZ059>079-312100-
SOUTH MISSISSIPPI

CITY           SKY/WX    TMP DP  RH WIND       PRES   REMARKS
BROOKHAVEN     FAIR      77  64  65 CALM      30.07F
COLUMBIA       DRIZZLE   79  70  73 CALM      30.03S
HATTIESBURG    PTSUNNY   83  62  49 N5        30.03F
MCCOMB         PTSUNNY   84  60  44 SE5       30.04F
NATCHEZ        CLOUDY    81  66  61 SE6       30.04F
PINE BELT      CLOUDY    81  61  50 CALM      30.05F
$$

MSZ080>082-312100-
COASTAL MISSISSIPPI

CITY           SKY/WX    TMP DP  RH WIND       PRES   REMARKS
BAY ST LOUIS   MOSUNNY  N/A N/A N/A CALM      30.01F
BILOXI         MOSUNNY   87  63  44 SW9       30.00F
PASCAGOULA     MOSUNNY   88  60  38 NE6       30.00F
GULFPORT       MOSUNNY   90  60  36 S6        30.00F
$$



USA.gov is the U.S. government's official web portal to all federal, state and local government web resources and services.